Overview Statistics Trail Chart Weather Telemetry Raw packets
 

This is the latest recevied weather packets stored in our database for station/object K7SKM. If no packets are shown the sender has not sent any weather packets the latest 10 day(s).

<< 2 3 4 5 6 7 8 >>
Time Temp. Humidity Pressure Rain* Wind** Luminosity Snow
1788658593 22.78° C 44% 1021 hPa 0 mm - 25 W/m² -
1788658276 22.22° C 46% 1020.8 hPa 0 mm - 199 W/m² -
1788657971 23.33° C 42% 1020.8 hPa 0 mm - 220 W/m² -
1788657671 23.33° C 43% 1020.9 hPa 0 mm - 228 W/m² -
1788657367 23.33° C 44% 1021 hPa 0 mm - 244 W/m² -
1788657061 22.78° C 45% 1020.6 hPa 0 mm - 260 W/m² -
1788656756 22.78° C 45% 1020.8 hPa 0 mm - 268 W/m² -
1788656453 23.33° C 43% 1020.9 hPa 0 mm - 279 W/m² -
1788656152 22.78° C 44% 1020.9 hPa 0 mm - 289 W/m² -
1788655851 23.33° C 44% 1020.8 hPa 0 mm - 294 W/m² -
1788655551 23.33° C 45% 1020.6 hPa 0 mm - 302 W/m² -
1788655245 22.78° C 46% 1020.6 hPa 0 mm - 310 W/m² -
1788654940 22.78° C 45% 1020.8 hPa 0 mm - 318 W/m² -
1788654637 22.22° C 46% 1020.6 hPa 0 mm - 308 W/m² -
1788654331 22.22° C 48% 1020.5 hPa 0 mm - 331 W/m² -
1788654026 21.67° C 48% 1020.6 hPa 0 mm - 340 W/m² -
1788653721 21.67° C 49% 1020.9 hPa 0 mm - 339 W/m² -
1788653416 21.67° C 49% 1020.6 hPa 0 mm - 181 W/m² -
1788653112 21.67° C 50% 1020.8 hPa 0 mm - 66 W/m² -
1788652806 22.22° C 49% 1020.7 hPa 0 mm - 59 W/m² -
1788652500 21.67° C 49% 1020.7 hPa 0 mm - 65 W/m² -
1788652195 21.67° C 50% 1020.8 hPa 0 mm - 128 W/m² -
1788651890 22.22° C 48% 1020.7 hPa 0 mm - 270 W/m² -
1788651585 21.67° C 51% 1020.7 hPa 0 mm - 237 W/m² -
1788651280 21.11° C 52% 1020.8 hPa 0 mm - 101 W/m² -

* Rain latest hour (hover to see other rain measurements)
** Current wind speed in m/s (hover to see current wind gust speed)